Time,TemperatureF,DewpointF,PressureIn,WindDirection,WindDirectionDegrees,WindSpeedMPH,WindSpeedGustMPH,Humidity,HourlyPrecipIn,Conditions,Clouds,dailyrainin,SoftwareType,DateUTC
2013-06-01 00:01:00,72.7,68.6,30.10,SSE,167,1.0,1.0,87,0.00,,,0.00,WeatherCatV1.15B25,2013-06-01 10:01:00,
2013-06-01 00:06:00,72.6,68.5,30.10,SSE,167,0.0,0.0,87,0.00,,,0.00,WeatherCatV1.15B25,2013-06-01 10:06:00,
2013-06-01 00:11:00,72.6,68.8,30.10,SSE,167,0.0,1.0,88,0.00,,,0.00,WeatherCatV1.15B25,2013-06-01 10:11:00,
2013-06-01 00:16:00,72.6,68.8,30.10,SSE,164,1.0,2.0,88,0.00,,,0.00,WeatherCatV1.15B25,2013-06-01 10:16:00,
2013-06-01 00:21:00,72.6,68.8,30.10,SSE,165,2.0,6.0,88,0.00,,,0.00,WeatherCatV1.15B25,2013-06-01 10:21:00,
2013-06-01 00:26:00,72.6,68.8,30.10,South,174,0.0,0.0,88,0.00,,,0.00,WeatherCatV1.15B25,2013-06-01 10:26:00,
2013-06-01 00:31:00,72.6,69.2,30.09,South,173,2.0,2.0,89,0.00,,,0.00,WeatherCatV1.15B25,2013-06-01 10:31:00,
2013-06-01 00:36:00,72.6,69.2,30.09,South,173,0.0,0.0,89,0.00,,,0.00,WeatherCatV1.15B25,2013-06-01 10:36:00,
2013-06-01 00:41:00,72.5,69.1,30.09,South,173,4.0,5.0,89,0.00,,,0.00,WeatherCatV1.15B25,2013-06-01 10:41:00,
2013-06-01 00:46:00,72.3,69.2,30.09,South,172,5.0,6.0,90,0.00,,,0.00,WeatherCatV1.15B25,2013-06-01 10:46:00,
2013-06-01 00:51:00,72.1,69.0,30.08,SSE,161,0.0,7.0,90,0.00,,,0.00,WeatherCatV1.15B25,2013-06-01 10:51:00,
2013-06-01 00:56:00,71.9,68.8,30.08,SSE,149,2.0,6.0,90,0.00,,,0.00,WeatherCatV1.15B25,2013-06-01 10:56:00,
2013-06-01 01:01:00,71.7,68.9,30.08,SSE,148,6.0,8.0,91,0.00,,,0.00,WeatherCatV1.15B25,2013-06-01 11:01:00,
2013-06-01 01:06:00,71.7,68.9,30.08,SSE,157,6.0,8.0,91,0.00,,,0.00,WeatherCatV1.15B25,2013-06-01 11:06:00,
2013-06-01 01:11:00,71.7,69.2,30.07,SE,145,9.0,9.0,92,0.00,,,0.00,WeatherCatV1.15B25,2013-06-01 11:11:00,
2013-06-01 01:16:00,71.8,69.3,30.07,SE,141,2.0,6.0,92,0.00,,,0.00,WeatherCatV1.15B25,2013-06-01 11:16:00,
2013-06-01 01:21:00,71.8,69.3,30.07,SE,143,4.0,6.0,92,0.00,,,0.00,WeatherCatV1.15B25,2013-06-01 11:21:00,
2013-06-01 01:26:00,71.7,69.2,30.07,SE,146,4.0,5.0,92,0.00,,,0.00,WeatherCatV1.15B25,2013-06-01 11:26:00,
2013-06-01 01:31:00,71.6,69.1,30.07,SSE,161,5.0,7.0,92,0.00,,,0.00,WeatherCatV1.15B25,2013-06-01 11:31:00,
2013-06-01 01:36:00,71.5,69.0,30.07,SE,144,0.0,8.0,92,0.00,,,0.00,WeatherCatV1.15B25,2013-06-01 11:36:00,
2013-06-01 01:41:00,71.4,68.9,30.07,SE,144,0.0,2.0,92,0.00,,,0.00,WeatherCatV1.15B25,2013-06-01 11:41:00,
2013-06-01 01:46:00,71.4,68.9,30.06,SE,144,0.0,4.0,92,0.00,,,0.00,WeatherCatV1.15B25,2013-06-01 11:46:00,
2013-06-01 01:51:00,71.3,68.8,30.06,SE,134,2.0,8.0,92,0.00,,,0.00,WeatherCatV1.15B25,2013-06-01 11:51:00,
2013-06-01 01:56:00,71.3,68.8,30.06,SE,138,2.0,5.0,92,0.00,,,0.00,WeatherCatV1.15B25,2013-06-01 11:56:00,
2013-06-01 02:01:00,71.3,68.8,30.06,SE,144,4.0,5.0,92,0.00,,,0.00,WeatherCatV1.15B25,2013-06-01 12:01:00,
2013-06-01 02:06:00,71.2,68.4,30.05,SE,144,2.0,4.0,91,0.00,,,0.00,WeatherCatV1.15B25,2013-06-01 12:06:00,
2013-06-01 02:11:00,71.1,68.3,30.05,SE,138,5.0,7.0,91,0.00,,,0.00,WeatherCatV1.15B25,2013-06-01 12:11:00,
2013-06-01 02:16:00,71.1,68.3,30.05,SE,136,1.0,7.0,91,0.00,,,0.00,WeatherCatV1.15B25,2013-06-01 12:16:00,
2013-06-01 02:21:00,71.2,68.8,30.05,SE,134,4.0,6.0,92,0.00,,,0.00,WeatherCatV1.15B25,2013-06-01 12:21:00,
2013-06-01 02:26:00,71.2,68.8,30.05,SE,140,4.0,7.0,92,0.00,,,0.00,WeatherCatV1.15B25,2013-06-01 12:26:00,
2013-06-01 02:31:00,71.2,68.8,30.05,SE,140,6.0,8.0,92,0.00,,,0.00,WeatherCatV1.15B25,2013-06-01 12:31:00,
2013-06-01 02:36:00,71.2,68.8,30.05,South,188,4.0,11.0,92,0.00,,,0.00,WeatherCatV1.15B25,2013-06-01 12:36:00,
2013-06-01 02:41:00,71.2,68.4,30.05,SSE,159,4.0,7.0,91,0.00,,,0.00,WeatherCatV1.15B25,2013-06-01 12:41:00,
2013-06-01 02:46:00,71.1,68.3,30.05,SE,136,5.0,7.0,91,0.00,,,0.00,WeatherCatV1.15B25,2013-06-01 12:46:00,
2013-06-01 02:51:00,71.2,68.4,30.05,SE,146,5.0,11.0,91,0.00,,,0.00,WeatherCatV1.15B25,2013-06-01 12:51:00,
2013-06-01 02:56:00,71.2,68.4,30.05,SE,140,6.0,11.0,91,0.00,,,0.00,WeatherCatV1.15B25,2013-06-01 12:56:00,
2013-06-01 03:01:00,71.3,68.5,30.05,SE,146,4.0,6.0,91,0.00,,,0.00,WeatherCatV1.15B25,2013-06-01 13:01:00,
2013-06-01 03:06:00,71.5,68.7,30.05,SE,141,6.0,11.0,91,0.00,,,0.00,WeatherCatV1.15B25,2013-06-01 13:06:00,
2013-06-01 03:11:00,71.5,68.7,30.05,SE,141,6.0,14.0,91,0.00,,,0.00,WeatherCatV1.15B25,2013-06-01 13:11:00,
2013-06-01 03:16:00,71.6,68.8,30.05,SE,146,6.0,9.0,91,0.00,,,0.00,WeatherCatV1.15B25,2013-06-01 13:16:00,
2013-06-01 03:21:00,71.6,68.5,30.05,SE,144,5.0,11.0,90,0.00,,,0.00,WeatherCatV1.15B25,2013-06-01 13:21:00,
2013-06-01 03:26:00,71.6,68.5,30.04,SE,134,4.0,4.0,90,0.00,,,0.00,WeatherCatV1.15B25,2013-06-01 13:26:00,
2013-06-01 03:31:00,71.5,68.4,30.04,SE,142,4.0,9.0,90,0.00,,,0.00,WeatherCatV1.15B25,2013-06-01 13:31:00,
2013-06-01 03:36:00,71.5,68.4,30.04,SE,138,2.0,7.0,90,0.00,,,0.00,WeatherCatV1.15B25,2013-06-01 13:36:00,
2013-06-01 03:41:00,71.4,68.3,30.05,SE,145,5.0,6.0,90,0.00,,,0.00,WeatherCatV1.15B25,2013-06-01 13:41:00,
2013-06-01 03:46:00,71.5,68.4,30.05,SE,145,7.0,9.0,90,0.00,,,0.00,WeatherCatV1.15B25,2013-06-01 13:46:00,
2013-06-01 03:51:00,71.5,68.4,30.05,SE,144,5.0,8.0,90,0.00,,,0.00,WeatherCatV1.15B25,2013-06-01 13:51:00,
2013-06-01 03:56:00,71.6,68.2,30.05,SE,146,2.0,2.0,89,0.00,,,0.00,WeatherCatV1.15B25,2013-06-01 13:56:00,
2013-06-01 04:01:00,71.5,68.1,30.05,SE,145,5.0,5.0,89,0.00,,,0.00,WeatherCatV1.15B25,2013-06-01 14:01:00,
2013-06-01 04:06:00,71.4,68.0,30.05,SE,144,4.0,4.0,89,0.00,,,0.00,WeatherCatV1.15B25,2013-06-01 14:06:00,
2013-06-01 04:11:00,71.3,67.9,30.05,SE,140,4.0,6.0,89,0.00,,,0.00,WeatherCatV1.15B25,2013-06-01 14:11:00,
2013-06-01 04:16:00,71.3,67.9,30.04,SE,140,2.0,6.0,89,0.00,,,0.00,WeatherCatV1.15B25,2013-06-01 14:16:00,
2013-06-01 04:21:00,71.2,67.8,30.05,SE,140,0.0,2.0,89,0.00,,,0.00,WeatherCatV1.15B25,2013-06-01 14:21:00,
2013-06-01 04:26:00,71.1,67.7,30.05,SE,140,1.0,2.0,89,0.00,,,0.00,WeatherCatV1.15B25,2013-06-01 14:26:00,
2013-06-01 04:31:00,71.0,67.6,30.05,SE,140,1.0,1.0,89,0.00,,,0.00,WeatherCatV1.15B25,2013-06-01 14:31:00,
2013-06-01 04:36:00,70.9,67.5,30.05,SE,140,0.0,1.0,89,0.00,,,0.00,WeatherCatV1.15B25,2013-06-01 14:36:00,
2013-06-01 04:41:00,70.8,67.7,30.06,SE,140,0.0,0.0,90,0.00,,,0.00,WeatherCatV1.15B25,2013-06-01 14:41:00,
2013-06-01 04:46:00,70.8,67.7,30.06,SE,140,2.0,4.0,90,0.00,,,0.00,WeatherCatV1.15B25,2013-06-01 14:46:00,
2013-06-01 04:51:00,70.7,67.6,30.06,SE,140,2.0,4.0,90,0.00,,,0.00,WeatherCatV1.15B25,2013-06-01 14:51:00,
2013-06-01 04:56:00,70.6,67.5,30.06,SE,140,0.0,0.0,90,0.00,,,0.00,WeatherCatV1.15B25,2013-06-01 14:56:00,
2013-06-01 05:01:00,70.5,67.4,30.06,SE,140,0.0,2.0,90,0.00,,,0.00,WeatherCatV1.15B25,2013-06-01 15:01:00,
2013-06-01 05:06:00,70.4,67.3,30.06,SE,141,1.0,2.0,90,0.00,,,0.00,WeatherCatV1.15B25,2013-06-01 15:06:00,
2013-06-01 05:11:00,70.4,67.6,30.06,SE,141,4.0,7.0,91,0.00,,,0.00,WeatherCatV1.15B25,2013-06-01 15:11:00,
2013-06-01 05:16:00,70.4,67.6,30.06,SSE,157,6.0,7.0,91,0.00,,,0.00,WeatherCatV1.15B25,2013-06-01 15:16:00,
2013-06-01 05:21:00,70.5,67.7,30.06,SSE,153,5.0,6.0,91,0.00,,,0.00,WeatherCatV1.15B25,2013-06-01 15:21:00,
2013-06-01 05:26:00,70.7,67.9,30.06,SSE,155,0.0,6.0,91,0.00,,,0.00,WeatherCatV1.15B25,2013-06-01 15:26:00,
2013-06-01 05:31:00,70.7,68.3,30.06,SSE,157,2.0,4.0,92,0.00,,,0.00,WeatherCatV1.15B25,2013-06-01 15:31:00,
2013-06-01 05:36:00,70.7,67.9,30.06,SSE,157,0.0,6.0,91,0.00,,,0.00,WeatherCatV1.15B25,2013-06-01 15:36:00,
2013-06-01 05:41:00,70.6,67.8,30.06,SSE,157,0.0,4.0,91,0.00,,,0.00,WeatherCatV1.15B25,2013-06-01 15:41:00,
2013-06-01 05:46:00,70.5,67.7,30.07,SSE,157,4.0,4.0,91,0.00,,,0.00,WeatherCatV1.15B25,2013-06-01 15:46:00,
2013-06-01 05:51:00,70.4,67.6,30.07,SSE,162,0.0,5.0,91,0.00,,,0.00,WeatherCatV1.15B25,2013-06-01 15:51:00,
2013-06-01 05:56:00,70.4,67.6,30.07,SSE,151,0.0,6.0,91,0.00,,,0.00,WeatherCatV1.15B25,2013-06-01 15:56:00,
2013-06-01 06:01:00,70.3,67.5,30.07,SSE,152,6.0,7.0,91,0.00,,,0.00,WeatherCatV1.15B25,2013-06-01 16:01:00,
2013-06-01 06:06:00,70.3,67.5,30.07,SSE,150,0.0,4.0,91,0.00,,,0.00,WeatherCatV1.15B25,2013-06-01 16:06:00,
2013-06-01 06:11:00,70.3,67.5,30.07,SSE,150,1.0,5.0,91,0.00,,,0.00,WeatherCatV1.15B25,2013-06-01 16:11:00,
2013-06-01 06:16:00,70.4,67.6,30.08,SSE,150,4.0,6.0,91,0.00,,,0.00,WeatherCatV1.15B25,2013-06-01 16:16:00,
2013-06-01 06:21:00,70.4,67.6,30.07,SSE,150,1.0,4.0,91,0.00,,,0.00,WeatherCatV1.15B25,2013-06-01 16:21:00,
2013-06-01 06:26:00,70.5,67.7,30.07,SSE,153,0.0,4.0,91,0.00,,,0.00,WeatherCatV1.15B25,2013-06-01 16:26:00,
2013-06-01 06:31:00,70.6,67.8,30.07,SSE,153,2.0,6.0,91,0.00,,,0.00,WeatherCatV1.15B25,2013-06-01 16:31:00,
2013-06-01 06:36:00,70.7,67.9,30.08,SSE,155,2.0,8.0,91,0.00,,,0.00,WeatherCatV1.15B25,2013-06-01 16:36:00,
2013-06-01 06:41:00,71.0,68.2,30.08,SSE,161,2.0,7.0,91,0.00,,,0.00,WeatherCatV1.15B25,2013-06-01 16:41:00,
2013-06-01 06:46:00,71.2,68.1,30.08,SSE,161,0.0,4.0,90,0.00,,,0.00,WeatherCatV1.15B25,2013-06-01 16:46:00,
2013-06-01 06:51:00,71.3,67.9,30.08,SSE,161,2.0,6.0,89,0.00,,,0.00,WeatherCatV1.15B25,2013-06-01 16:51:00,
2013-06-01 06:56:00,71.6,68.2,30.08,SE,132,6.0,7.0,89,0.00,,,0.00,WeatherCatV1.15B25,2013-06-01 16:56:00,
2013-06-01 07:01:00,72.0,68.9,30.08,SE,132,4.0,7.0,90,0.00,,,0.00,WeatherCatV1.15B25,2013-06-01 17:01:00,
2013-06-01 07:06:00,72.6,69.5,30.08,SE,144,7.0,7.0,90,0.00,,,0.00,WeatherCatV1.15B25,2013-06-01 17:06:00,
2013-06-01 07:11:00,73.5,70.0,30.08,SSE,156,7.0,9.0,89,0.00,,,0.00,WeatherCatV1.15B25,2013-06-01 17:11:00,
2013-06-01 07:16:00,74.6,70.5,30.08,SSE,151,4.0,6.0,87,0.00,,,0.00,WeatherCatV1.15B25,2013-06-01 17:16:00,
2013-06-01 07:21:00,75.5,70.7,30.08,SE,140,7.0,9.0,85,0.00,,,0.00,WeatherCatV1.15B25,2013-06-01 17:21:00,
2013-06-01 07:26:00,76.1,70.2,30.09,SE,138,9.0,11.0,82,0.00,,,0.00,WeatherCatV1.15B25,2013-06-01 17:26:00,
2013-06-01 07:31:00,76.3,70.4,30.09,SE,141,0.0,10.0,82,0.00,,,0.00,WeatherCatV1.15B25,2013-06-01 17:31:00,
2013-06-01 07:36:00,76.8,70.5,30.09,SSE,158,4.0,7.0,81,0.00,,,0.00,WeatherCatV1.15B25,2013-06-01 17:36:00,
2013-06-01 07:41:00,77.1,70.4,30.09,SSE,153,4.0,9.0,80,0.00,,,0.00,WeatherCatV1.15B25,2013-06-01 17:41:00,
2013-06-01 07:46:00,77.2,70.5,30.09,SSE,152,0.0,9.0,80,0.00,,,0.00,WeatherCatV1.15B25,2013-06-01 17:46:00,
2013-06-01 07:51:00,77.2,70.2,30.09,South,180,3.0,4.0,79,0.00,,,0.00,WeatherCatV1.15B25,2013-06-01 17:51:00,
2013-06-01 07:56:00,76.9,69.9,30.10,SE,146,2.0,7.0,79,0.00,,,0.00,WeatherCatV1.15B25,2013-06-01 17:56:00,
2013-06-01 08:01:00,76.4,69.8,30.10,SE,136,5.0,7.0,80,0.00,,,0.00,WeatherCatV1.15B25,2013-06-01 18:01:00,
2013-06-01 08:06:00,76.1,70.2,30.10,ESE,109,7.0,13.0,82,0.00,,,0.00,WeatherCatV1.15B25,2013-06-01 18:06:00,
2013-06-01 08:11:00,76.7,71.1,30.10,SE,128,6.0,8.0,83,0.00,,,0.00,WeatherCatV1.15B25,2013-06-01 18:11:00,
2013-06-01 08:16:00,77.6,71.7,30.10,SSE,153,4.0,8.0,82,0.00,,,0.00,WeatherCatV1.15B25,2013-06-01 18:16:00,
2013-06-01 08:21:00,78.4,71.3,30.10,SSE,167,5.0,10.0,79,0.00,,,0.00,WeatherCatV1.15B25,2013-06-01 18:21:00,
2013-06-01 08:26:00,79.0,71.2,30.10,SE,129,2.0,13.0,77,0.00,,,0.00,WeatherCatV1.15B25,2013-06-01 18:26:00,
2013-06-01 08:31:00,79.1,71.2,30.10,ENE,71,5.0,7.0,77,0.00,,,0.00,WeatherCatV1.15B25,2013-06-01 18:31:00,
2013-06-01 08:36:00,78.7,70.9,30.11,ESE,123,4.0,5.0,77,0.00,,,0.00,WeatherCatV1.15B25,2013-06-01 18:36:00,
2013-06-01 08:41:00,78.1,70.7,30.11,ESE,107,2.0,4.0,78,0.00,,,0.00,WeatherCatV1.15B25,2013-06-01 18:41:00,
2013-06-01 08:46:00,77.5,70.5,30.10,SSE,154,8.0,8.0,79,0.00,,,0.00,WeatherCatV1.15B25,2013-06-01 18:46:00,
2013-06-01 08:51:00,77.0,70.3,30.11,SE,128,1.0,6.0,80,0.00,,,0.00,WeatherCatV1.15B25,2013-06-01 18:51:00,
2013-06-01 08:56:00,77.3,71.0,30.11,SE,135,5.0,11.0,81,0.00,,,0.00,WeatherCatV1.15B25,2013-06-01 18:56:00,
2013-06-01 09:01:00,78.3,72.0,30.11,ENE,59,5.0,8.0,81,0.00,,,0.00,WeatherCatV1.15B25,2013-06-01 19:01:00,
2013-06-01 09:06:00,79.0,71.9,30.11,SE,129,6.0,12.0,79,0.00,,,0.00,WeatherCatV1.15B25,2013-06-01 19:06:00,
2013-06-01 09:11:00,79.6,72.5,30.11,SE,136,8.0,8.0,79,0.00,,,0.00,WeatherCatV1.15B25,2013-06-01 19:11:00,
2013-06-01 09:16:00,79.7,71.8,30.11,ENE,76,0.0,7.0,77,0.00,,,0.00,WeatherCatV1.15B25,2013-06-01 19:16:00,
2013-06-01 09:21:00,79.4,71.5,30.11,ENE,78,6.0,9.0,77,0.00,,,0.00,WeatherCatV1.15B25,2013-06-01 19:21:00,
2013-06-01 09:26:00,79.0,71.5,30.11,ENE,71,1.0,7.0,78,0.00,,,0.00,WeatherCatV1.15B25,2013-06-01 19:26:00,
2013-06-01 09:31:00,79.2,71.7,30.11,East,79,0.0,6.0,78,0.00,,,0.00,WeatherCatV1.15B25,2013-06-01 19:31:00,
2013-06-01 09:36:00,79.3,71.8,30.11,ESE,121,0.0,7.0,78,0.00,,,0.00,WeatherCatV1.15B25,2013-06-01 19:36:00,
2013-06-01 09:41:00,79.4,71.5,30.11,East,80,5.0,6.0,77,0.00,,,0.00,WeatherCatV1.15B25,2013-06-01 19:41:00,
2013-06-01 09:46:00,79.7,71.8,30.11,SE,130,0.0,8.0,77,0.00,,,0.00,WeatherCatV1.15B25,2013-06-01 19:46:00,
2013-06-01 09:51:00,80.6,72.3,30.11,SE,138,0.0,7.0,76,0.00,,,0.00,WeatherCatV1.15B25,2013-06-01 19:51:00,
2013-06-01 09:56:00,81.3,72.2,30.11,ENE,76,6.0,9.0,74,0.00,,,0.00,WeatherCatV1.15B25,2013-06-01 19:56:00,
2013-06-01 10:01:00,80.7,71.2,30.11,East,90,4.0,9.0,73,0.00,,,0.00,WeatherCatV1.15B25,2013-06-01 20:01:00,
2013-06-01 10:06:00,79.8,70.4,30.10,SSE,163,6.0,6.0,73,0.00,,,0.00,WeatherCatV1.15B25,2013-06-01 20:06:00,
2013-06-01 10:11:00,79.3,70.3,30.10,SE,146,1.0,10.0,74,0.00,,,0.00,WeatherCatV1.15B25,2013-06-01 20:11:00,
2013-06-01 10:16:00,79.2,70.6,30.10,East,88,3.0,9.0,75,0.00,,,0.00,WeatherCatV1.15B25,2013-06-01 20:16:00,
2013-06-01 10:21:00,79.6,71.3,30.10,ESE,114,2.0,7.0,76,0.00,,,0.00,WeatherCatV1.15B25,2013-06-01 20:21:00,
2013-06-01 10:26:00,80.2,70.3,30.10,SE,125,4.0,8.0,72,0.00,,,0.00,WeatherCatV1.15B25,2013-06-01 20:26:00,
2013-06-01 10:31:00,80.5,70.2,30.10,East,99,5.0,6.0,71,0.00,,,0.00,WeatherCatV1.15B25,2013-06-01 20:31:00,
2013-06-01 10:36:00,80.4,70.1,30.10,East,95,0.0,5.0,71,0.00,,,0.00,WeatherCatV1.15B25,2013-06-01 20:36:00,
2013-06-01 10:41:00,80.2,70.7,30.11,ENE,78,3.0,6.0,73,0.00,,,0.00,WeatherCatV1.15B25,2013-06-01 20:41:00,
2013-06-01 10:46:00,79.7,70.7,30.11,ENE,71,1.0,5.0,74,0.00,,,0.00,WeatherCatV1.15B25,2013-06-01 20:46:00,
2013-06-01 10:51:00,79.4,70.8,30.12,NE,51,3.0,7.0,75,0.00,,,0.00,WeatherCatV1.15B25,2013-06-01 20:51:00,
2013-06-01 10:56:00,78.9,70.7,30.12,ENE,58,0.0,9.0,76,0.00,,,0.00,WeatherCatV1.15B25,2013-06-01 20:56:00,
2013-06-01 11:01:00,78.4,71.3,30.12,ENE,72,5.0,8.0,79,0.00,,,0.00,WeatherCatV1.15B25,2013-06-01 21:01:00,
2013-06-01 11:06:00,78.4,71.7,30.12,East,96,1.0,5.0,80,0.00,,,0.00,WeatherCatV1.15B25,2013-06-01 21:06:00,
2013-06-01 11:11:00,79.4,73.0,30.12,East,84,1.0,6.0,81,0.00,,,0.00,WeatherCatV1.15B25,2013-06-01 21:11:00,
2013-06-01 11:16:00,80.4,72.9,30.11,ENE,74,2.0,11.0,78,0.00,,,0.00,WeatherCatV1.15B25,2013-06-01 21:16:00,
2013-06-01 11:21:00,81.2,72.5,30.11,ENE,69,3.0,9.0,75,0.00,,,0.00,WeatherCatV1.15B25,2013-06-01 21:21:00,
2013-06-01 11:26:00,82.0,72.5,30.11,ESE,111,0.0,15.0,73,0.00,,,0.00,WeatherCatV1.15B25,2013-06-01 21:26:00,
2013-06-01 11:31:00,83.2,72.8,30.11,East,86,6.0,10.0,71,0.00,,,0.00,WeatherCatV1.15B25,2013-06-01 21:31:00,
2013-06-01 11:36:00,82.9,72.1,30.11,NE,40,5.0,12.0,70,0.00,,,0.00,WeatherCatV1.15B25,2013-06-01 21:36:00,
2013-06-01 11:41:00,82.2,71.4,30.11,East,82,3.0,11.0,70,0.00,,,0.00,WeatherCatV1.15B25,2013-06-01 21:41:00,
2013-06-01 11:46:00,82.3,71.5,30.11,ESE,107,2.0,13.0,70,0.00,,,0.00,WeatherCatV1.15B25,2013-06-01 21:46:00,
2013-06-01 11:51:00,83.4,73.0,30.11,ENE,58,7.0,11.0,71,0.00,,,0.00,WeatherCatV1.15B25,2013-06-01 21:51:00,
2013-06-01 11:56:00,84.1,71.9,30.11,ESE,116,6.0,10.0,67,0.00,,,0.00,WeatherCatV1.15B25,2013-06-01 21:56:00,
2013-06-01 12:01:00,84.1,72.8,30.11,NE,37,3.0,7.0,69,0.00,,,0.00,WeatherCatV1.15B25,2013-06-01 22:01:00,
2013-06-01 12:06:00,84.0,72.7,30.11,East,92,1.0,9.0,69,0.00,,,0.00,WeatherCatV1.15B25,2013-06-01 22:06:00,
2013-06-01 12:11:00,84.3,71.7,30.11,East,90,8.0,12.0,66,0.00,,,0.00,WeatherCatV1.15B25,2013-06-01 22:11:00,
2013-06-01 12:16:00,83.6,71.0,30.11,ENE,76,0.0,10.0,66,0.00,,,0.00,WeatherCatV1.15B25,2013-06-01 22:16:00,
2013-06-01 12:21:00,83.6,71.9,30.11,ESE,108,6.0,12.0,68,0.00,,,0.00,WeatherCatV1.15B25,2013-06-01 22:21:00,
2013-06-01 12:26:00,84.3,72.1,30.11,East,86,4.0,11.0,67,0.00,,,0.00,WeatherCatV1.15B25,2013-06-01 22:26:00,
2013-06-01 12:31:00,84.3,72.6,30.10,NE,55,1.0,6.0,68,0.00,,,0.00,WeatherCatV1.15B25,2013-06-01 22:31:00,
2013-06-01 12:36:00,84.6,72.4,30.10,SE,128,8.0,11.0,67,0.00,,,0.00,WeatherCatV1.15B25,2013-06-01 22:36:00,
2013-06-01 12:41:00,84.0,71.4,30.10,ENE,73,1.0,11.0,66,0.00,,,0.00,WeatherCatV1.15B25,2013-06-01 22:41:00,
2013-06-01 12:46:00,83.4,71.7,30.10,ESE,115,8.0,10.0,68,0.00,,,0.00,WeatherCatV1.15B25,2013-06-01 22:46:00,
2013-06-01 12:51:00,83.9,71.3,30.10,ENE,74,3.0,13.0,66,0.00,,,0.00,WeatherCatV1.15B25,2013-06-01 22:51:00,
2013-06-01 12:56:00,84.0,71.4,30.09,ESE,107,0.0,7.0,66,0.00,,,0.00,WeatherCatV1.15B25,2013-06-01 22:56:00,
2013-06-01 13:01:00,83.9,70.8,30.10,East,89,7.0,8.0,65,0.00,,,0.00,WeatherCatV1.15B25,2013-06-01 23:01:00,
2013-06-01 13:06:00,82.7,69.3,30.09,ENE,63,3.0,12.0,64,0.00,,,0.00,WeatherCatV1.15B25,2013-06-01 23:06:00,
2013-06-01 13:11:00,81.7,69.6,30.09,ENE,67,3.0,11.0,67,0.00,,,0.00,WeatherCatV1.15B25,2013-06-01 23:11:00,
2013-06-01 13:16:00,81.6,70.8,30.09,East,98,6.0,11.0,70,0.00,,,0.00,WeatherCatV1.15B25,2013-06-01 23:16:00,
2013-06-01 13:21:00,81.7,70.5,30.09,ENE,74,7.0,9.0,69,0.00,,,0.00,WeatherCatV1.15B25,2013-06-01 23:21:00,
2013-06-01 13:26:00,81.5,70.7,30.09,East,93,9.0,12.0,70,0.00,,,0.00,WeatherCatV1.15B25,2013-06-01 23:26:00,
2013-06-01 13:31:00,81.5,71.6,30.09,ENE,75,6.0,9.0,72,0.00,,,0.00,WeatherCatV1.15B25,2013-06-01 23:31:00,
2013-06-01 13:36:00,81.6,70.8,30.09,East,95,8.0,12.0,70,0.00,,,0.00,WeatherCatV1.15B25,2013-06-01 23:36:00,
2013-06-01 13:41:00,81.8,71.5,30.09,East,90,4.0,11.0,71,0.00,,,0.00,WeatherCatV1.15B25,2013-06-01 23:41:00,
2013-06-01 13:46:00,82.4,72.0,30.09,ENE,62,7.0,13.0,71,0.00,,,0.00,WeatherCatV1.15B25,2013-06-01 23:46:00,
2013-06-01 13:51:00,82.4,72.4,30.09,SSE,149,5.0,6.0,72,0.00,,,0.00,WeatherCatV1.15B25,2013-06-01 23:51:00,
2013-06-01 13:56:00,83.0,73.0,30.09,East,84,3.0,8.0,72,0.00,,,0.00,WeatherCatV1.15B25,2013-06-01 23:56:00,
2013-06-01 14:01:00,83.3,72.5,30.09,East,83,2.0,7.0,70,0.00,,,0.00,WeatherCatV1.15B25,2013-06-02 00:01:00,
2013-06-01 14:06:00,82.8,72.0,30.09,NE,56,10.0,10.0,70,0.00,,,0.00,WeatherCatV1.15B25,2013-06-02 00:06:00,
2013-06-01 14:11:00,82.3,71.9,30.09,ESE,118,4.0,8.0,71,0.00,,,0.00,WeatherCatV1.15B25,2013-06-02 00:11:00,
2013-06-01 14:16:00,82.5,72.5,30.08,East,92,5.0,5.0,72,0.00,,,0.00,WeatherCatV1.15B25,2013-06-02 00:16:00,
2013-06-01 14:21:00,82.5,71.7,30.08,ESE,109,7.0,11.0,70,0.00,,,0.00,WeatherCatV1.15B25,2013-06-02 00:21:00,
2013-06-01 14:26:00,81.4,71.1,30.08,East,97,11.0,11.0,71,0.00,,,0.00,WeatherCatV1.15B25,2013-06-02 00:26:00,
2013-06-01 14:31:00,81.1,71.6,30.08,SE,138,2.0,10.0,73,0.00,,,0.00,WeatherCatV1.15B25,2013-06-02 00:31:00,
2013-06-01 14:36:00,80.5,71.0,30.08,ENE,71,2.0,11.0,73,0.00,,,0.00,WeatherCatV1.15B25,2013-06-02 00:36:00,
2013-06-01 14:41:00,80.0,70.9,30.08,East,89,8.0,8.0,74,0.00,,,0.00,WeatherCatV1.15B25,2013-06-02 00:41:00,
2013-06-01 14:46:00,79.5,71.3,30.08,ESE,103,0.0,6.0,76,0.00,,,0.00,WeatherCatV1.15B25,2013-06-02 00:46:00,
2013-06-01 14:51:00,79.4,71.2,30.08,ENE,71,0.0,5.0,76,0.00,,,0.00,WeatherCatV1.15B25,2013-06-02 00:51:00,
2013-06-01 14:56:00,79.2,71.3,30.08,ENE,77,0.0,5.0,77,0.00,,,0.00,WeatherCatV1.15B25,2013-06-02 00:56:00,
2013-06-01 15:01:00,78.8,70.6,30.08,East,82,8.0,8.0,76,0.00,,,0.00,WeatherCatV1.15B25,2013-06-02 01:01:00,
2013-06-01 15:06:00,78.7,71.2,30.08,East,90,9.0,9.0,78,0.00,,,0.00,WeatherCatV1.15B25,2013-06-02 01:06:00,
2013-06-01 15:11:00,78.8,71.0,30.08,East,100,0.0,5.0,77,0.00,,,0.00,WeatherCatV1.15B25,2013-06-02 01:11:00,
2013-06-01 15:16:00,78.8,70.2,30.08,ESE,103,4.0,11.0,75,0.00,,,0.00,WeatherCatV1.15B25,2013-06-02 01:16:00,
2013-06-01 15:21:00,78.6,70.8,30.08,ENE,74,2.0,11.0,77,0.00,,,0.00,WeatherCatV1.15B25,2013-06-02 01:21:00,
2013-06-01 15:26:00,77.9,71.2,30.08,SE,129,0.0,8.0,80,0.00,,,0.00,WeatherCatV1.15B25,2013-06-02 01:26:00,
2013-06-01 15:31:00,77.4,71.5,30.08,ESE,107,1.0,8.0,82,0.00,,,0.00,WeatherCatV1.15B25,2013-06-02 01:31:00,
2013-06-01 15:36:00,77.1,71.9,30.08,East,98,0.0,6.0,84,0.00,,,0.00,WeatherCatV1.15B25,2013-06-02 01:36:00,
2013-06-01 15:41:00,77.0,71.8,30.08,ESE,103,2.0,8.0,84,0.00,,,0.00,WeatherCatV1.15B25,2013-06-02 01:41:00,
2013-06-01 15:46:00,76.7,71.5,30.08,SE,144,4.0,13.0,84,0.00,,,0.00,WeatherCatV1.15B25,2013-06-02 01:46:00,
2013-06-01 15:51:00,76.3,71.8,30.08,East,96,6.0,6.0,86,0.00,,,0.00,WeatherCatV1.15B25,2013-06-02 01:51:00,
2013-06-01 15:56:00,76.0,71.8,30.08,ENE,63,1.0,5.0,87,0.00,,,0.00,WeatherCatV1.15B25,2013-06-02 01:56:00,
2013-06-01 16:01:00,75.9,72.1,30.08,East,88,2.0,7.0,88,0.00,,,0.00,WeatherCatV1.15B25,2013-06-02 02:01:00,
2013-06-01 16:06:00,76.0,72.2,30.08,ENE,71,2.0,6.0,88,0.00,,,0.00,WeatherCatV1.15B25,2013-06-02 02:06:00,
2013-06-01 16:11:00,76.3,72.1,30.08,ESE,113,5.0,10.0,87,0.00,,,0.00,WeatherCatV1.15B25,2013-06-02 02:11:00,
2013-06-01 16:16:00,76.2,71.3,30.08,ENE,63,3.0,10.0,85,0.00,,,0.00,WeatherCatV1.15B25,2013-06-02 02:16:00,
2013-06-01 16:21:00,76.3,72.5,30.08,ESE,121,6.0,6.0,88,0.00,,,0.01,WeatherCatV1.15B25,2013-06-02 02:21:00,
2013-06-01 16:26:00,75.9,72.1,30.07,East,101,0.0,6.0,88,0.00,,,0.01,WeatherCatV1.15B25,2013-06-02 02:26:00,
2013-06-01 16:31:00,75.7,71.9,30.07,ESE,107,2.0,6.0,88,0.00,,,0.01,WeatherCatV1.15B25,2013-06-02 02:31:00,
2013-06-01 16:36:00,75.7,72.5,30.08,ENE,71,2.0,4.0,90,0.00,,,0.01,WeatherCatV1.15B25,2013-06-02 02:36:00,
2013-06-01 16:41:00,75.5,71.7,30.08,East,92,5.0,9.0,88,0.00,,,0.01,WeatherCatV1.15B25,2013-06-02 02:41:00,
2013-06-01 16:46:00,75.2,71.7,30.08,ENE,78,4.0,7.0,89,0.00,,,0.01,WeatherCatV1.15B25,2013-06-02 02:46:00,
2013-06-01 16:51:00,75.0,71.5,30.08,East,90,1.0,4.0,89,0.00,,,0.01,WeatherCatV1.15B25,2013-06-02 02:51:00,
2013-06-01 16:56:00,75.0,71.9,30.08,SE,142,1.0,6.0,90,0.00,,,0.01,WeatherCatV1.15B25,2013-06-02 02:56:00,
2013-06-01 17:01:00,75.3,72.2,30.08,SE,133,4.0,9.0,90,0.00,,,0.01,WeatherCatV1.15B25,2013-06-02 03:01:00,
2013-06-01 17:06:00,75.2,71.7,30.08,SE,145,6.0,7.0,89,0.00,,,0.01,WeatherCatV1.15B25,2013-06-02 03:06:00,
2013-06-01 17:11:00,75.0,71.9,30.07,SSE,148,4.0,6.0,90,0.00,,,0.01,WeatherCatV1.15B25,2013-06-02 03:11:00,
2013-06-01 17:16:00,74.9,71.8,30.08,SSE,147,7.0,9.0,90,0.00,,,0.01,WeatherCatV1.15B25,2013-06-02 03:16:00,
2013-06-01 17:21:00,74.9,72.1,30.08,ESE,105,2.0,10.0,91,0.00,,,0.01,WeatherCatV1.15B25,2013-06-02 03:21:00,
2013-06-01 17:26:00,74.8,71.7,30.08,SE,134,5.0,15.0,90,0.00,,,0.01,WeatherCatV1.15B25,2013-06-02 03:26:00,
2013-06-01 17:31:00,74.6,71.5,30.08,East,92,0.0,9.0,90,0.00,,,0.01,WeatherCatV1.15B25,2013-06-02 03:31:00,
2013-06-01 17:36:00,74.6,71.5,30.08,ESE,105,5.0,7.0,90,0.00,,,0.01,WeatherCatV1.15B25,2013-06-02 03:36:00,
2013-06-01 17:41:00,74.7,71.9,30.08,SE,138,4.0,7.0,91,0.00,,,0.01,WeatherCatV1.15B25,2013-06-02 03:41:00,
2013-06-01 17:46:00,74.8,72.0,30.08,SE,145,1.0,6.0,91,0.00,,,0.01,WeatherCatV1.15B25,2013-06-02 03:46:00,
2013-06-01 17:51:00,74.8,71.7,30.08,SE,128,4.0,10.0,90,0.00,,,0.02,WeatherCatV1.15B25,2013-06-02 03:51:00,
2013-06-01 17:56:00,74.5,71.7,30.08,SE,143,6.0,7.0,91,0.00,,,0.02,WeatherCatV1.15B25,2013-06-02 03:56:00,
2013-06-01 18:01:00,74.5,71.7,30.09,SE,136,2.0,7.0,91,0.00,,,0.02,WeatherCatV1.15B25,2013-06-02 04:01:00,
2013-06-01 18:06:00,74.6,72.1,30.09,SE,138,4.0,5.0,92,0.00,,,0.02,WeatherCatV1.15B25,2013-06-02 04:06:00,
2013-06-01 18:11:00,74.6,72.1,30.09,SE,137,4.0,7.0,92,0.00,,,0.02,WeatherCatV1.15B25,2013-06-02 04:11:00,
2013-06-01 18:16:00,74.3,71.5,30.09,SE,141,2.0,7.0,91,0.00,,,0.03,WeatherCatV1.15B25,2013-06-02 04:16:00,
2013-06-01 18:21:00,74.1,71.3,30.09,SE,132,0.0,7.0,91,0.00,,,0.03,WeatherCatV1.15B25,2013-06-02 04:21:00,
2013-06-01 18:26:00,73.9,71.4,30.09,ESE,113,5.0,7.0,92,0.00,,,0.03,WeatherCatV1.15B25,2013-06-02 04:26:00,
2013-06-01 18:31:00,73.8,71.3,30.10,SE,136,4.0,8.0,92,0.00,,,0.03,WeatherCatV1.15B25,2013-06-02 04:31:00,
2013-06-01 18:36:00,73.6,71.1,30.10,SSE,147,6.0,6.0,92,0.00,,,0.03,WeatherCatV1.15B25,2013-06-02 04:36:00,
2013-06-01 18:41:00,73.5,71.0,30.10,ESE,119,4.0,7.0,92,0.00,,,0.03,WeatherCatV1.15B25,2013-06-02 04:41:00,
2013-06-01 18:46:00,73.4,71.2,30.10,ESE,119,2.0,2.0,93,0.00,,,0.03,WeatherCatV1.15B25,2013-06-02 04:46:00,
2013-06-01 18:51:00,73.3,71.1,30.10,SE,132,6.0,6.0,93,0.00,,,0.03,WeatherCatV1.15B25,2013-06-02 04:51:00,
2013-06-01 18:56:00,73.2,71.0,30.10,SE,139,5.0,7.0,93,0.00,,,0.03,WeatherCatV1.15B25,2013-06-02 04:56:00,
2013-06-01 19:01:00,73.1,70.9,30.11,SE,142,0.0,2.0,93,0.00,,,0.04,WeatherCatV1.15B25,2013-06-02 05:01:00,
2013-06-01 19:06:00,73.0,70.8,30.11,SE,141,0.0,5.0,93,0.00,,,0.04,WeatherCatV1.15B25,2013-06-02 05:06:00,
2013-06-01 19:11:00,73.0,70.8,30.11,SSE,148,5.0,7.0,93,0.00,,,0.04,WeatherCatV1.15B25,2013-06-02 05:11:00,
2013-06-01 19:16:00,72.9,70.8,30.11,SSE,148,6.0,6.0,93,0.00,,,0.04,WeatherCatV1.15B25,2013-06-02 05:16:00,
2013-06-01 19:21:00,72.8,71.0,30.11,South,171,5.0,7.0,94,0.00,,,0.04,WeatherCatV1.15B25,2013-06-02 05:21:00,
2013-06-01 19:26:00,72.7,70.6,30.11,SE,140,2.0,6.0,93,0.00,,,0.05,WeatherCatV1.15B25,2013-06-02 05:26:00,
2013-06-01 19:31:00,72.6,70.8,30.11,SE,137,6.0,8.0,94,0.00,,,0.05,WeatherCatV1.15B25,2013-06-02 05:31:00,
2013-06-01 19:36:00,72.6,70.8,30.12,SSE,147,2.0,6.0,94,0.00,,,0.05,WeatherCatV1.15B25,2013-06-02 05:36:00,
2013-06-01 19:41:00,72.5,70.7,30.12,SSE,148,4.0,4.0,94,0.00,,,0.05,WeatherCatV1.15B25,2013-06-02 05:41:00,
2013-06-01 19:46:00,72.4,70.6,30.12,SSE,152,0.0,1.0,94,0.00,,,0.05,WeatherCatV1.15B25,2013-06-02 05:46:00,
2013-06-01 19:51:00,72.3,70.5,30.12,SE,145,4.0,6.0,94,0.00,,,0.05,WeatherCatV1.15B25,2013-06-02 05:51:00,
2013-06-01 19:56:00,72.2,70.4,30.12,SE,144,1.0,7.0,94,0.00,,,0.06,WeatherCatV1.15B25,2013-06-02 05:56:00,
2013-06-01 20:01:00,72.1,70.3,30.13,SE,144,1.0,5.0,94,0.09,,,0.07,WeatherCatV1.15B25,2013-06-02 06:01:00,
2013-06-01 20:06:00,72.0,70.2,30.13,SE,140,7.0,10.0,94,0.08,,,0.07,WeatherCatV1.15B25,2013-06-02 06:06:00,
2013-06-01 20:11:00,71.9,70.1,30.13,SE,138,0.0,7.0,94,0.05,,,0.07,WeatherCatV1.15B25,2013-06-02 06:11:00,
2013-06-01 20:16:00,71.8,70.0,30.13,SE,130,2.0,7.0,94,0.00,,,0.07,WeatherCatV1.15B25,2013-06-02 06:16:00,
2013-06-01 20:21:00,71.7,69.9,30.13,SSE,156,2.0,7.0,94,0.00,,,0.07,WeatherCatV1.15B25,2013-06-02 06:21:00,
2013-06-01 20:26:00,71.7,70.2,30.13,SSE,153,7.0,7.0,95,0.00,,,0.07,WeatherCatV1.15B25,2013-06-02 06:26:00,
2013-06-01 20:31:00,71.7,70.2,30.13,SSE,157,5.0,7.0,95,0.00,,,0.07,WeatherCatV1.15B25,2013-06-02 06:31:00,
2013-06-01 20:36:00,71.7,70.2,30.13,SE,142,9.0,9.0,95,0.00,,,0.08,WeatherCatV1.15B25,2013-06-02 06:36:00,
2013-06-01 20:41:00,71.7,70.2,30.13,SE,146,2.0,6.0,95,0.00,,,0.08,WeatherCatV1.15B25,2013-06-02 06:41:00,
2013-06-01 20:46:00,71.7,70.2,30.13,SE,146,2.0,8.0,95,0.00,,,0.08,WeatherCatV1.15B25,2013-06-02 06:46:00,
2013-06-01 20:51:00,71.7,70.2,30.13,SE,134,0.0,1.0,95,0.00,,,0.08,WeatherCatV1.15B25,2013-06-02 06:51:00,
2013-06-01 20:56:00,71.8,70.3,30.14,SE,134,0.0,2.0,95,0.00,,,0.08,WeatherCatV1.15B25,2013-06-02 06:56:00,
2013-06-01 21:01:00,71.8,70.3,30.14,SSE,155,4.0,11.0,95,0.00,,,0.08,WeatherCatV1.15B25,2013-06-02 07:01:00,
2013-06-01 21:06:00,71.7,70.2,30.14,SE,146,5.0,7.0,95,0.00,,,0.08,WeatherCatV1.15B25,2013-06-02 07:06:00,
2013-06-01 21:11:00,71.5,70.0,30.14,SE,139,0.0,5.0,95,0.00,,,0.08,WeatherCatV1.15B25,2013-06-02 07:11:00,
2013-06-01 21:16:00,71.5,70.0,30.14,ESE,108,7.0,10.0,95,0.00,,,0.08,WeatherCatV1.15B25,2013-06-02 07:16:00,
2013-06-01 21:21:00,71.5,70.0,30.15,SE,146,6.0,9.0,95,0.00,,,0.08,WeatherCatV1.15B25,2013-06-02 07:21:00,
2013-06-01 21:26:00,71.6,70.1,30.15,SSE,157,8.0,8.0,95,0.00,,,0.09,WeatherCatV1.15B25,2013-06-02 07:26:00,
2013-06-01 21:31:00,71.5,70.0,30.15,SE,145,8.0,10.0,95,0.00,,,0.09,WeatherCatV1.15B25,2013-06-02 07:31:00,
2013-06-01 21:36:00,71.5,70.0,30.15,SSE,150,5.0,10.0,95,0.00,,,0.09,WeatherCatV1.15B25,2013-06-02 07:36:00,
2013-06-01 21:41:00,71.5,70.0,30.15,SE,135,9.0,10.0,95,0.00,,,0.09,WeatherCatV1.15B25,2013-06-02 07:41:00,
2013-06-01 21:46:00,71.5,70.0,30.15,SSE,157,5.0,6.0,95,0.00,,,0.09,WeatherCatV1.15B25,2013-06-02 07:46:00,
2013-06-01 21:51:00,71.4,69.9,30.15,SSE,154,0.0,1.0,95,0.00,,,0.09,WeatherCatV1.15B25,2013-06-02 07:51:00,
2013-06-01 21:56:00,71.4,69.9,30.15,SSE,161,5.0,7.0,95,0.00,,,0.09,WeatherCatV1.15B25,2013-06-02 07:56:00,
2013-06-01 22:01:00,71.4,69.9,30.15,SSE,151,0.0,2.0,95,0.00,,,0.09,WeatherCatV1.15B25,2013-06-02 08:01:00,
2013-06-01 22:06:00,71.3,69.8,30.15,SSE,151,1.0,4.0,95,0.00,,,0.10,WeatherCatV1.15B25,2013-06-02 08:06:00,
2013-06-01 22:11:00,71.3,69.8,30.15,SSE,151,5.0,7.0,95,0.00,,,0.10,WeatherCatV1.15B25,2013-06-02 08:11:00,
2013-06-01 22:16:00,71.2,69.7,30.15,SSE,153,4.0,5.0,95,0.00,,,0.10,WeatherCatV1.15B25,2013-06-02 08:16:00,
2013-06-01 22:21:00,71.2,69.7,30.15,SSE,150,0.0,10.0,95,0.00,,,0.10,WeatherCatV1.15B25,2013-06-02 08:21:00,
2013-06-01 22:26:00,71.2,69.7,30.15,SSE,150,5.0,5.0,95,0.00,,,0.10,WeatherCatV1.15B25,2013-06-02 08:26:00,
2013-06-01 22:31:00,71.2,69.7,30.15,SSE,148,0.0,5.0,95,0.00,,,0.10,WeatherCatV1.15B25,2013-06-02 08:31:00,
2013-06-01 22:36:00,71.2,69.7,30.15,SE,146,4.0,7.0,95,0.00,,,0.10,WeatherCatV1.15B25,2013-06-02 08:36:00,
2013-06-01 22:41:00,71.3,69.8,30.15,SE,146,4.0,8.0,95,0.00,,,0.10,WeatherCatV1.15B25,2013-06-02 08:41:00,
2013-06-01 22:46:00,71.3,69.8,30.15,SE,146,0.0,1.0,95,0.00,,,0.10,WeatherCatV1.15B25,2013-06-02 08:46:00,
2013-06-01 22:51:00,71.4,69.9,30.15,SE,146,0.0,6.0,95,0.00,,,0.10,WeatherCatV1.15B25,2013-06-02 08:51:00,
2013-06-01 22:56:00,71.4,69.9,30.15,SE,146,4.0,5.0,95,0.00,,,0.10,WeatherCatV1.15B25,2013-06-02 08:56:00,
2013-06-01 23:01:00,71.4,69.9,30.15,SE,136,2.0,9.0,95,0.00,,,0.10,WeatherCatV1.15B25,2013-06-02 09:01:00,
2013-06-01 23:06:00,71.5,70.0,30.15,SE,144,9.0,9.0,95,0.00,,,0.10,WeatherCatV1.15B25,2013-06-02 09:06:00,
2013-06-01 23:11:00,71.4,69.9,30.15,SE,146,8.0,10.0,95,0.00,,,0.10,WeatherCatV1.15B25,2013-06-02 09:11:00,
2013-06-01 23:16:00,71.4,69.9,30.15,SE,137,4.0,9.0,95,0.00,,,0.10,WeatherCatV1.15B25,2013-06-02 09:16:00,
2013-06-01 23:21:00,71.3,69.8,30.15,SSE,148,5.0,11.0,95,0.00,,,0.10,WeatherCatV1.15B25,2013-06-02 09:21:00,
2013-06-01 23:26:00,71.3,69.5,30.15,SE,142,6.0,8.0,94,0.00,,,0.10,WeatherCatV1.15B25,2013-06-02 09:26:00,
2013-06-01 23:31:00,71.3,69.5,30.15,SSE,147,2.0,7.0,94,0.00,,,0.10,WeatherCatV1.15B25,2013-06-02 09:31:00,
2013-06-01 23:36:00,71.3,69.5,30.15,SE,134,7.0,8.0,94,0.00,,,0.10,WeatherCatV1.15B25,2013-06-02 09:36:00,
2013-06-01 23:41:00,71.3,69.5,30.14,SSE,147,7.0,8.0,94,0.00,,,0.10,WeatherCatV1.15B25,2013-06-02 09:41:00,
2013-06-01 23:46:00,71.2,69.4,30.14,SSE,148,4.0,6.0,94,0.00,,,0.10,WeatherCatV1.15B25,2013-06-02 09:46:00,
2013-06-01 23:51:00,71.2,69.4,30.14,SE,144,2.0,9.0,94,0.00,,,0.10,WeatherCatV1.15B25,2013-06-02 09:51:00,
2013-06-01 23:56:00,71.3,69.5,30.14,SE,136,7.0,9.0,94,0.00,,,0.10,WeatherCatV1.15B25,2013-06-02 09:56:00,